RYR2HU EIDW-LFBH

Flight info

Callsign RYR2HU
Flight time 1h 20m
Altitude 37000
Route PESIT2J PESIT DCT BAKUR DCT GUBJE DCT GISOK DCT TACQI DCT MANIG DCT BADUR/N0410F310 DCT KORER UM616 NTS A25 LUSON
Aircraft B38M/M-SADE3FGILRWY/SB1

Departure

Time 2026-05-06 10:12
Airport Dublin Airport (EIDW)

Arrival

Time 2026-05-06 11:33
Airport La Rochelle Île de Ré Airport (LFBH)
Time Latitude Longitude Altitude Speed Heading
2026-05-06 09:49 53.43008 -6.24943 217 ft 0 kts
2026-05-06 10:03 53.43001 -6.24944 213 ft 4 kts 360°
2026-05-06 10:03 53.42977 -6.24935 217 ft 4 kts 326°
2026-05-06 10:03 53.42959 -6.24903 213 ft 4 kts 299°
2026-05-06 10:03 53.42948 -6.24862 213 ft 4 kts 285°
2026-05-06 10:04 53.42943 -6.24818 213 ft 4 kts 277°
2026-05-06 10:04 53.42940 -6.24777 218 ft 1 kts 275°
2026-05-06 10:04 53.42940 -6.24776 218 ft 0 kts 275°
2026-05-06 10:06 53.42941 -6.24788 216 ft 2 kts 275°
2026-05-06 10:06 53.42943 -6.24824 213 ft 4 kts 275°
2026-05-06 10:07 53.42947 -6.24896 213 ft 8 kts 275°
2026-05-06 10:07 53.42954 -6.25029 219 ft 14 kts 275°
2026-05-06 10:07 53.42962 -6.25182 213 ft 8 kts 275°
2026-05-06 10:07 53.42974 -6.25260 216 ft 7 kts 317°
2026-05-06 10:08 53.43036 -6.25311 216 ft 12 kts 337°
2026-05-06 10:08 53.43113 -6.25367 221 ft 12 kts 336°
2026-05-06 10:08 53.43193 -6.25364 213 ft 13 kts 61°
2026-05-06 10:08 53.43209 -6.25230 213 ft 12 kts 93°
2026-05-06 10:09 53.43201 -6.25078 217 ft 13 kts 95°
2026-05-06 10:09 53.43192 -6.24916 213 ft 14 kts 95°
2026-05-06 10:09 53.43182 -6.24733 213 ft 15 kts 95°
2026-05-06 10:09 53.43193 -6.24559 213 ft 15 kts 95°
2026-05-06 10:10 53.43226 -6.24416 213 ft 15 kts 12°
2026-05-06 10:10 53.43332 -6.24375 217 ft 14 kts 52°
2026-05-06 10:10 53.43332 -6.24221 213 ft 15 kts 94°
2026-05-06 10:10 53.43323 -6.24027 213 ft 18 kts 95°
2026-05-06 10:11 53.43352 -6.23861 216 ft 13 kts 15°
2026-05-06 10:11 53.43458 -6.23854 211 ft 18 kts 341°
2026-05-06 10:11 53.43492 -6.23987 214 ft 0 kts 275°
2026-05-06 10:11 53.43497 -6.24071 212 ft 24 kts 276°
2026-05-06 10:12 53.43538 -6.24823 215 ft 104 kts 275°
2026-05-06 10:12 53.43626 -6.26395 225 ft 164 kts 276°
2026-05-06 10:12 53.43746 -6.28399 799 ft 175 kts 275°
2026-05-06 10:12 53.43864 -6.30465 1638 ft 182 kts 278°
2026-05-06 10:13 53.44363 -6.32496 2184 ft 205 kts 311°
2026-05-06 10:13 53.45459 -6.34069 2877 ft 212 kts 321°
2026-05-06 10:13 53.46562 -6.35840 3537 ft 229 kts 310°
2026-05-06 10:13 53.47591 -6.37969 4316 ft 239 kts 307°
2026-05-06 10:14 53.48593 -6.40200 5257 ft 245 kts 306°
2026-05-06 10:14 53.49639 -6.42588 5888 ft 262 kts 305°
2026-05-06 10:14 53.50682 -6.45169 6689 ft 269 kts 294°
2026-05-06 10:14 53.50965 -6.48202 7687 ft 266 kts 260°
2026-05-06 10:15 53.50200 -6.51020 8508 ft 274 kts 229°
2026-05-06 10:15 53.48657 -6.52906 8819 ft 278 kts 202°
2026-05-06 10:15 53.47411 -6.53419 8927 ft 280 kts 185°
2026-05-06 10:15 53.45480 -6.52973 9026 ft 285 kts 160°
2026-05-06 10:16 53.43691 -6.51473 9170 ft 291 kts 153°
2026-05-06 10:16 53.41910 -6.49889 10021 ft 290 kts 157°
2026-05-06 10:16 53.40008 -6.48575 10590 ft 304 kts 161°
2026-05-06 10:16 53.37961 -6.47288 10955 ft 323 kts 166°
2026-05-06 10:17 53.35700 -6.46551 11295 ft 340 kts 174°
2026-05-06 10:17 53.33306 -6.46126 11820 ft 351 kts 178°
2026-05-06 10:17 53.30855 -6.45621 12459 ft 359 kts 166°
2026-05-06 10:17 53.28576 -6.43858 13281 ft 365 kts 152°
2026-05-06 10:18 53.26312 -6.41861 13901 ft 371 kts 155°
2026-05-06 10:18 53.23991 -6.39951 14564 ft 373 kts 156°
2026-05-06 10:18 53.21641 -6.38072 15206 ft 376 kts 157°
2026-05-06 10:18 53.19259 -6.36199 15846 ft 380 kts 157°
2026-05-06 10:19 53.16859 -6.34332 16471 ft 383 kts 157°
2026-05-06 10:19 53.14436 -6.32459 17094 ft 386 kts 157°
2026-05-06 10:19 53.11988 -6.30572 17701 ft 389 kts 157°
2026-05-06 10:19 53.09517 -6.28671 18314 ft 392 kts 157°
2026-05-06 10:20 53.07029 -6.26760 18812 ft 396 kts 157°
2026-05-06 10:20 53.04522 -6.24837 19336 ft 398 kts 157°
2026-05-06 10:20 53.01990 -6.22896 19813 ft 402 kts 157°
2026-05-06 10:20 52.99444 -6.20948 20305 ft 405 kts 157°
2026-05-06 10:21 52.96878 -6.18987 20786 ft 408 kts 157°
2026-05-06 10:21 52.94293 -6.17007 21273 ft 411 kts 157°
2026-05-06 10:21 52.91695 -6.15008 21734 ft 414 kts 157°
2026-05-06 10:21 52.89069 -6.12988 22201 ft 417 kts 157°
2026-05-06 10:22 52.86426 -6.10958 22668 ft 420 kts 157°
2026-05-06 10:22 52.83760 -6.08913 23124 ft 423 kts 157°
2026-05-06 10:22 52.81086 -6.06864 23585 ft 425 kts 157°
2026-05-06 10:22 52.78388 -6.04801 23950 ft 429 kts 157°
2026-05-06 10:23 52.75673 -6.02727 24322 ft 431 kts 157°
2026-05-06 10:23 52.72952 -6.00651 24695 ft 433 kts 158°
2026-05-06 10:23 52.70209 -5.98561 25072 ft 435 kts 158°
2026-05-06 10:23 52.67453 -5.96465 25441 ft 437 kts 158°
2026-05-06 10:24 52.64681 -5.94359 25810 ft 439 kts 158°
2026-05-06 10:24 52.61939 -5.92279 26165 ft 441 kts 158°
2026-05-06 10:24 52.59107 -5.90133 26511 ft 443 kts 158°
2026-05-06 10:24 52.56336 -5.88036 26850 ft 445 kts 158°
2026-05-06 10:25 52.53515 -5.85906 27186 ft 447 kts 158°
2026-05-06 10:25 52.50649 -5.83744 27527 ft 449 kts 158°
2026-05-06 10:25 52.47841 -5.81628 27848 ft 451 kts 158°
2026-05-06 10:25 52.44976 -5.79474 28167 ft 453 kts 158°
2026-05-06 10:26 52.42104 -5.77316 28490 ft 455 kts 158°
2026-05-06 10:26 52.39191 -5.75279 28766 ft 455 kts 165°
2026-05-06 10:26 52.36151 -5.73836 29110 ft 455 kts 166°
2026-05-06 10:26 52.33104 -5.72365 29338 ft 458 kts 166°
2026-05-06 10:27 52.30044 -5.70879 29667 ft 460 kts 166°
2026-05-06 10:27 52.26974 -5.69389 29945 ft 462 kts 166°
2026-05-06 10:27 52.23899 -5.67828 30198 ft 465 kts 162°
2026-05-06 10:27 52.20909 -5.65815 30533 ft 465 kts 160°
2026-05-06 10:28 52.17920 -5.63802 30829 ft 465 kts 160°
2026-05-06 10:28 52.14932 -5.61791 31129 ft 464 kts 160°
2026-05-06 10:28 52.11946 -5.59784 31447 ft 464 kts 160°
2026-05-06 10:28 52.08965 -5.57783 31764 ft 463 kts 160°
2026-05-06 10:29 52.05987 -5.55787 32079 ft 463 kts 160°
2026-05-06 10:29 52.03044 -5.53664 32376 ft 464 kts 157°
2026-05-06 10:29 52.00141 -5.51380 32687 ft 463 kts 157°
2026-05-06 10:29 51.97246 -5.49098 32984 ft 463 kts 156°
2026-05-06 10:30 51.94351 -5.46816 33283 ft 462 kts 157°
2026-05-06 10:30 51.91458 -5.44538 33566 ft 462 kts 156°
2026-05-06 10:30 51.88574 -5.42270 33875 ft 461 kts 157°
2026-05-06 10:30 51.85694 -5.40009 34155 ft 460 kts 156°
2026-05-06 10:31 51.82823 -5.37757 34295 ft 458 kts 156°
2026-05-06 10:31 51.79949 -5.35508 34353 ft 460 kts 156°
2026-05-06 10:31 51.77068 -5.33255 34547 ft 461 kts 156°
2026-05-06 10:31 51.74179 -5.30999 34734 ft 461 kts 156°
2026-05-06 10:32 51.71292 -5.28749 34980 ft 461 kts 156°
2026-05-06 10:32 51.68406 -5.26502 35176 ft 461 kts 156°
2026-05-06 10:32 51.65518 -5.24258 35381 ft 461 kts 156°
2026-05-06 10:32 51.62633 -5.22018 35586 ft 461 kts 156°
2026-05-06 10:33 51.59786 -5.19811 35779 ft 461 kts 156°
2026-05-06 10:33 51.56902 -5.17578 35964 ft 461 kts 156°
2026-05-06 10:33 51.54008 -5.15342 36148 ft 461 kts 156°
2026-05-06 10:33 51.51132 -5.13066 36313 ft 461 kts 152°
2026-05-06 10:34 51.48582 -5.10067 36219 ft 451 kts 139°
2026-05-06 10:34 51.46260 -5.06737 35864 ft 448 kts 141°
2026-05-06 10:34 51.43893 -5.03425 35694 ft 455 kts 140°
2026-05-06 10:34 51.41501 -5.00055 35715 ft 459 kts 140°
2026-05-06 10:35 51.39102 -4.96673 35872 ft 460 kts 140°
2026-05-06 10:35 51.36716 -4.93311 35884 ft 454 kts 140°
2026-05-06 10:35 51.34337 -4.89965 35215 ft 455 kts 140°
2026-05-06 10:35 51.31976 -4.86648 35018 ft 451 kts 140°
2026-05-06 10:36 51.27229 -4.79990 35020 ft 458 kts 141°
2026-05-06 10:36 51.22423 -4.73269 35011 ft 459 kts 140°
2026-05-06 10:37 51.17622 -4.66578 35023 ft 459 kts 140°
2026-05-06 10:37 51.12811 -4.59891 35022 ft 459 kts 140°
2026-05-06 10:38 51.07998 -4.53219 35015 ft 459 kts 140°
2026-05-06 10:38 51.03084 -4.46764 34983 ft 456 kts 150°
2026-05-06 10:39 50.97695 -4.41477 34986 ft 458 kts 149°
2026-05-06 10:39 50.92321 -4.36115 35031 ft 457 kts 149°
2026-05-06 10:40 50.86938 -4.30759 35003 ft 456 kts 150°
2026-05-06 10:40 50.81557 -4.25420 35002 ft 456 kts 150°
2026-05-06 10:41 50.76178 -4.20097 35009 ft 456 kts 149°
2026-05-06 10:41 50.70799 -4.14788 35007 ft 456 kts 149°
2026-05-06 10:42 50.65415 -4.09490 35003 ft 456 kts 149°
2026-05-06 10:42 50.60032 -4.04207 34997 ft 456 kts 149°
2026-05-06 10:43 50.54651 -3.98940 35009 ft 456 kts 149°
2026-05-06 10:44 50.46567 -3.91055 34950 ft 456 kts 149°
2026-05-06 10:44 50.41176 -3.85815 34778 ft 455 kts 149°
2026-05-06 10:45 50.35788 -3.80592 34608 ft 456 kts 149°
2026-05-06 10:45 50.30399 -3.75381 34435 ft 455 kts 149°
2026-05-06 10:46 50.25009 -3.70183 34272 ft 455 kts 149°
2026-05-06 10:46 50.19612 -3.64994 34105 ft 456 kts 149°
2026-05-06 10:47 50.14203 -3.59805 33934 ft 456 kts 149°
2026-05-06 10:47 50.11499 -3.57217 33826 ft 456 kts 149°
2026-05-06 10:47 50.08794 -3.54633 33719 ft 457 kts 149°
2026-05-06 10:48 50.03347 -3.49436 33529 ft 459 kts 149°
2026-05-06 10:48 50.00618 -3.46838 33414 ft 461 kts 149°
2026-05-06 10:48 49.97876 -3.44231 33313 ft 463 kts 149°
2026-05-06 10:49 49.92377 -3.39014 33125 ft 464 kts 149°
2026-05-06 10:49 49.89629 -3.36410 33017 ft 461 kts 149°
2026-05-06 10:49 49.86897 -3.33826 32923 ft 459 kts 149°
2026-05-06 10:50 49.81444 -3.28678 32734 ft 458 kts 149°
2026-05-06 10:50 49.78668 -3.26264 32611 ft 458 kts 158°
2026-05-06 10:50 49.75617 -3.24947 32447 ft 455 kts 172°
2026-05-06 10:51 49.69366 -3.23254 32310 ft 459 kts 170°
2026-05-06 10:51 49.63108 -3.21428 32121 ft 458 kts 170°
2026-05-06 10:52 49.56847 -3.19605 31934 ft 458 kts 170°
2026-05-06 10:52 49.53719 -3.18697 31830 ft 458 kts 170°
2026-05-06 10:52 49.50629 -3.17800 31747 ft 458 kts 170°
2026-05-06 10:53 49.44368 -3.15987 31563 ft 458 kts 170°
2026-05-06 10:53 49.38110 -3.14180 31383 ft 458 kts 170°
2026-05-06 10:54 49.31854 -3.12378 31203 ft 458 kts 170°
2026-05-06 10:54 49.25589 -3.10578 31022 ft 458 kts 170°
2026-05-06 10:55 49.19295 -3.08774 30985 ft 463 kts 169°
2026-05-06 10:55 49.12966 -3.06965 30983 ft 463 kts 169°
2026-05-06 10:56 49.06636 -3.05160 30988 ft 463 kts 169°
2026-05-06 10:56 49.00315 -3.03362 31001 ft 461 kts 169°
2026-05-06 10:57 48.94014 -3.01576 30978 ft 460 kts 169°
2026-05-06 10:57 48.87705 -2.99791 30983 ft 461 kts 169°
2026-05-06 10:58 48.81399 -2.98012 30980 ft 461 kts 169°
2026-05-06 10:58 48.75088 -2.96235 30972 ft 461 kts 169°
2026-05-06 10:59 48.68842 -2.94104 30944 ft 460 kts 163°
2026-05-06 10:59 48.62692 -2.91345 30975 ft 461 kts 163°
2026-05-06 11:00 48.56549 -2.88607 30948 ft 460 kts 163°
2026-05-06 11:00 48.50411 -2.85876 30976 ft 460 kts 163°
2026-05-06 11:01 48.45310 -2.83612 30968 ft 459 kts 163°
2026-05-06 11:01 48.42277 -2.82269 30443 ft 455 kts 163°
2026-05-06 11:01 48.39236 -2.80923 29712 ft 455 kts 164°
2026-05-06 11:01 48.36197 -2.79580 29048 ft 456 kts 164°
2026-05-06 11:02 48.33146 -2.78233 28593 ft 457 kts 164°
2026-05-06 11:02 48.27002 -2.75525 28016 ft 460 kts 165°
2026-05-06 11:02 48.23932 -2.74175 27632 ft 462 kts 165°
2026-05-06 11:03 48.20847 -2.72820 27307 ft 463 kts 165°
2026-05-06 11:03 48.17754 -2.71463 26981 ft 464 kts 165°
2026-05-06 11:03 48.14658 -2.70107 26655 ft 464 kts 165°
2026-05-06 11:03 48.11551 -2.68747 26348 ft 465 kts 165°
2026-05-06 11:04 48.08443 -2.67389 26028 ft 466 kts 165°
2026-05-06 11:04 48.05328 -2.66029 25728 ft 467 kts 165°
2026-05-06 11:04 48.02209 -2.64670 25434 ft 466 kts 165°
2026-05-06 11:04 47.99126 -2.63329 25132 ft 459 kts 165°
2026-05-06 11:05 47.96067 -2.61997 24838 ft 458 kts 165°
2026-05-06 11:05 47.93004 -2.60666 24534 ft 459 kts 165°
2026-05-06 11:05 47.89936 -2.59336 24226 ft 460 kts 165°
2026-05-06 11:05 47.86866 -2.58006 23938 ft 460 kts 165°
2026-05-06 11:06 47.83790 -2.56675 23650 ft 461 kts 165°
2026-05-06 11:06 47.80710 -2.55344 23334 ft 462 kts 165°
2026-05-06 11:06 47.77617 -2.54008 22982 ft 463 kts 165°
2026-05-06 11:06 47.74523 -2.52673 22659 ft 465 kts 164°
2026-05-06 11:07 47.71403 -2.51323 22321 ft 468 kts 162°
2026-05-06 11:07 47.68462 -2.49332 21947 ft 460 kts 146°
2026-05-06 11:07 47.66085 -2.46290 21637 ft 446 kts 130°
2026-05-06 11:07 47.64139 -2.42723 21348 ft 445 kts 129°
2026-05-06 11:08 47.62136 -2.39210 21025 ft 446 kts 129°
2026-05-06 11:08 47.60116 -2.35716 20710 ft 447 kts 130°
2026-05-06 11:08 47.58111 -2.32278 20398 ft 447 kts 130°
2026-05-06 11:08 47.56076 -2.28799 20095 ft 448 kts 130°
2026-05-06 11:09 47.54006 -2.25270 19781 ft 449 kts 130°
2026-05-06 11:09 47.51994 -2.21843 19468 ft 443 kts 129°
2026-05-06 11:09 47.49986 -2.18428 19191 ft 439 kts 129°
2026-05-06 11:09 47.47984 -2.15027 18924 ft 438 kts 129°
2026-05-06 11:10 47.46008 -2.11675 18650 ft 429 kts 130°
2026-05-06 11:10 47.44054 -2.08363 18324 ft 427 kts 129°
2026-05-06 11:10 47.42097 -2.05052 17997 ft 428 kts 129°
2026-05-06 11:10 47.40136 -2.01738 17733 ft 429 kts 129°
2026-05-06 11:11 47.38183 -1.98441 17395 ft 426 kts 129°
2026-05-06 11:11 47.36231 -1.95148 17088 ft 425 kts 130°
2026-05-06 11:11 47.34299 -1.91865 16842 ft 422 kts 129°
2026-05-06 11:11 47.32393 -1.88621 16557 ft 418 kts 130°
2026-05-06 11:12 47.30472 -1.85406 16285 ft 418 kts 130°
2026-05-06 11:12 47.28554 -1.82195 16007 ft 418 kts 130°
2026-05-06 11:12 47.26640 -1.78980 15711 ft 418 kts 130°
2026-05-06 11:12 47.24746 -1.75799 15490 ft 409 kts 130°
2026-05-06 11:13 47.22892 -1.72682 15099 ft 404 kts 130°
2026-05-06 11:13 47.21031 -1.69566 14964 ft 407 kts 130°
2026-05-06 11:13 47.19157 -1.66430 14970 ft 408 kts 130°
2026-05-06 11:13 47.17275 -1.63313 14985 ft 408 kts 133°
2026-05-06 11:14 47.15022 -1.60827 14918 ft 406 kts 153°
2026-05-06 11:14 47.12346 -1.59509 14966 ft 409 kts 168°
2026-05-06 11:14 47.09565 -1.58565 14940 ft 412 kts 166°
2026-05-06 11:14 47.06790 -1.57528 14935 ft 411 kts 165°
2026-05-06 11:15 47.04033 -1.56468 14926 ft 409 kts 165°
2026-05-06 11:15 47.01281 -1.55391 14946 ft 409 kts 165°
2026-05-06 11:15 46.98538 -1.54306 14944 ft 408 kts 165°
2026-05-06 11:15 46.95798 -1.53221 14952 ft 408 kts 164°
2026-05-06 11:16 46.93046 -1.52131 14949 ft 409 kts 165°
2026-05-06 11:16 46.90299 -1.51043 14953 ft 410 kts 165°
2026-05-06 11:16 46.87548 -1.49956 14955 ft 410 kts 164°
2026-05-06 11:16 46.84790 -1.48867 14960 ft 410 kts 165°
2026-05-06 11:17 46.82044 -1.47783 14957 ft 409 kts 164°
2026-05-06 11:17 46.79291 -1.46697 14959 ft 409 kts 165°
2026-05-06 11:17 46.76557 -1.45621 14964 ft 407 kts 165°
2026-05-06 11:17 46.73823 -1.44545 14969 ft 408 kts 165°
2026-05-06 11:18 46.71074 -1.43465 14966 ft 409 kts 165°
2026-05-06 11:18 46.68345 -1.42395 14650 ft 405 kts 165°
2026-05-06 11:18 46.65607 -1.41323 13894 ft 409 kts 165°
2026-05-06 11:18 46.62898 -1.40260 13224 ft 408 kts 165°
2026-05-06 11:19 46.60147 -1.39181 12455 ft 410 kts 164°
2026-05-06 11:19 46.57396 -1.38072 11837 ft 405 kts 164°
2026-05-06 11:19 46.54727 -1.36993 11052 ft 395 kts 164°
2026-05-06 11:19 46.52112 -1.35929 10319 ft 386 kts 162°
2026-05-06 11:20 46.49818 -1.34261 10277 ft 355 kts 141°
2026-05-06 11:20 46.48201 -1.31737 10087 ft 332 kts 121°
2026-05-06 11:20 46.46939 -1.29016 9696 ft 320 kts 122°
2026-05-06 11:20 46.46069 -1.26151 9243 ft 304 kts 95°
2026-05-06 11:21 46.46296 -1.23257 8979 ft 280 kts 62°
2026-05-06 11:21 46.47333 -1.20971 8549 ft 269 kts 49°
2026-05-06 11:21 46.48557 -1.18870 7829 ft 275 kts 47°
2026-05-06 11:21 46.49801 -1.16761 7339 ft 275 kts 47°
2026-05-06 11:22 46.51036 -1.14671 7057 ft 272 kts 48°
2026-05-06 11:22 46.52313 -1.12654 6729 ft 270 kts 37°
2026-05-06 11:22 46.53976 -1.11589 6512 ft 261 kts
2026-05-06 11:22 46.55779 -1.11795 6096 ft 263 kts 343°
2026-05-06 11:23 46.57401 -1.13007 5765 ft 264 kts 322°
2026-05-06 11:23 46.58562 -1.15039 5501 ft 265 kts 300°
2026-05-06 11:23 46.59079 -1.17620 5139 ft 270 kts 275°
2026-05-06 11:23 46.58760 -1.20293 4960 ft 271 kts 247°
2026-05-06 11:24 46.57649 -1.22507 4943 ft 276 kts 221°
2026-05-06 11:24 46.55983 -1.23925 4975 ft 281 kts 205°
2026-05-06 11:24 46.54208 -1.25128 4944 ft 282 kts 206°
2026-05-06 11:24 46.52436 -1.26363 4958 ft 282 kts 206°
2026-05-06 11:25 46.50670 -1.27604 4951 ft 282 kts 206°
2026-05-06 11:25 46.48912 -1.28847 4939 ft 281 kts 206°
2026-05-06 11:25 46.47153 -1.30097 4957 ft 282 kts 206°
2026-05-06 11:25 46.45389 -1.31350 4955 ft 282 kts 207°
2026-05-06 11:26 46.43625 -1.32604 4947 ft 282 kts 207°
2026-05-06 11:26 46.41863 -1.33856 4950 ft 282 kts 207°
2026-05-06 11:26 46.40104 -1.35105 4943 ft 281 kts 206°
2026-05-06 11:26 46.38346 -1.36354 4946 ft 282 kts 207°
2026-05-06 11:27 46.36583 -1.37604 4943 ft 282 kts 207°
2026-05-06 11:27 46.34822 -1.38853 4922 ft 281 kts 207°
2026-05-06 11:27 46.33065 -1.40096 4934 ft 280 kts 207°
2026-05-06 11:27 46.31308 -1.41328 4936 ft 279 kts 204°
2026-05-06 11:28 46.29549 -1.42357 4934 ft 267 kts 202°
2026-05-06 11:28 46.27868 -1.43323 4944 ft 253 kts 202°
2026-05-06 11:28 46.26297 -1.44233 4902 ft 240 kts 203°
2026-05-06 11:28 46.24767 -1.45123 4805 ft 229 kts 203°
2026-05-06 11:29 46.23292 -1.45953 4551 ft 227 kts 196°
2026-05-06 11:29 46.21747 -1.45941 4230 ft 223 kts 158°
2026-05-06 11:29 46.20523 -1.44712 3886 ft 217 kts 125°
2026-05-06 11:29 46.19684 -1.42987 3718 ft 205 kts 121°
2026-05-06 11:30 46.18904 -1.41321 3517 ft 196 kts 114°
2026-05-06 11:30 46.18580 -1.39444 2976 ft 195 kts 89°
2026-05-06 11:30 46.18497 -1.37510 2622 ft 189 kts 89°
2026-05-06 11:30 46.18419 -1.35665 2408 ft 183 kts 89°
2026-05-06 11:31 46.18333 -1.33847 2091 ft 181 kts 89°
2026-05-06 11:31 46.18272 -1.32073 1766 ft 172 kts 88°
2026-05-06 11:31 46.18215 -1.30378 1360 ft 165 kts 89°
2026-05-06 11:31 46.18163 -1.28770 1081 ft 157 kts 86°
2026-05-06 11:32 46.18130 -1.27207 997 ft 157 kts 90°
2026-05-06 11:32 46.18039 -1.25631 938 ft 156 kts 90°
2026-05-06 11:32 46.17995 -1.24126 662 ft 144 kts 84°
2026-05-06 11:32 46.17989 -1.22736 404 ft 136 kts 84°
2026-05-06 11:33 46.17965 -1.21367 215 ft 138 kts 86°
2026-05-06 11:33 46.17934 -1.20050 81 ft 98 kts 92°
2026-05-06 11:33 46.17926 -1.19746 79 ft 5 kts 92°
2026-05-06 11:33 46.17921 -1.19587 79 ft 18 kts 92°
2026-05-06 11:34 46.17919 -1.19520 79 ft 1 kts 92°
2026-05-06 11:34 46.17919 -1.19506 79 ft 5 kts 92°
2026-05-06 11:34 46.17915 -1.19381 77 ft 18 kts 92°
2026-05-06 11:35 46.17909 -1.19178 75 ft 21 kts 92°
2026-05-06 11:35 46.17903 -1.18963 76 ft 21 kts 92°
2026-05-06 11:35 46.17896 -1.18722 76 ft 27 kts 92°
2026-05-06 11:35 46.17888 -1.18449 79 ft 27 kts 92°
2026-05-06 11:36 46.17857 -1.18238 82 ft 10 kts 108°
2026-05-06 11:36 46.17882 -1.18250 82 ft 12 kts 294°
2026-05-06 11:36 46.17887 -1.18446 79 ft 28 kts 273°
2026-05-06 11:36 46.17896 -1.18726 76 ft 30 kts 272°
2026-05-06 11:37 46.17906 -1.19061 76 ft 35 kts 272°
2026-05-06 11:37 46.17915 -1.19358 77 ft 25 kts 272°
2026-05-06 11:37 46.17853 -1.19494 83 ft 18 kts 181°
2026-05-06 11:37 46.17745 -1.19500 81 ft 10 kts 182°
2026-05-06 11:38 46.17692 -1.19455 80 ft 11 kts 103°
2026-05-06 11:38 46.17689 -1.19410 79 ft 3 kts 90°
2026-05-06 11:38 46.17688 -1.19403 79 ft 0 kts 113°
2026-05-06 11:38 46.17675 -1.19392 82 ft 5 kts 161°
2026-05-06 11:39 46.17659 -1.19394 81 ft 3 kts 213°
2026-05-06 11:39 46.17655 -1.19415 85 ft 3 kts 284°
2026-05-06 11:39 46.17659 -1.19427 79 ft 0 kts 302°
2026-05-06 11:39 46.17664 -1.19440 79 ft 3 kts 308°
2026-05-06 11:40 46.17668 -1.19445 84 ft 0 kts 318°
2026-05-06 11:45 46.17668 -1.19444 79 ft 0 kts 318°
2026-05-06 11:48 46.17667 -1.19444 79 ft 0 kts 318°